Simultaneous Nadir Overpasses (SNOs) Predictions

Prediction of SNOs between AQUA and METOP-B Satellite Orbit:

Table of predicted SNOs for the next 14.0 days since TLE Epoch: 12/8/2017
Index Date (AQUA) Time (AQUA) Lat,Lon (AQUA) SZA (AQUA ) Date (METOP-B) Time (METOP-B) Lat,Lon (METOP-B) SZA (METOP-B ) Distance(km) Time Diff (sec)
1 12/10/2017 04:04:32 73.06, 114.60 95.90 12/10/2017 04:03:27 73.00, 111.54 95.90 99.61 65
2 12/10/2017 04:54:12 -73.80, -79.32 83.34 12/10/2017 04:53:53 -73.79, -79.35 83.34 1.62 19
3 12/10/2017 05:43:41 73.89, 88.12 96.77 12/10/2017 05:44:31 73.88, 88.20 96.75 2.83 50
4 12/12/2017 23:38:53 73.38,-179.61 96.45 12/12/2017 23:37:44 73.29, 178.59 96.41 58.07 69
5 12/13/2017 00:28:27 -73.81, -12.89 83.11 12/13/2017 00:28:16 -73.79, -12.95 83.12 2.68 11
6 12/13/2017 01:17:56 73.90, 154.55 97.00 12/13/2017 01:18:54 73.87, 154.59 96.97 3.04 58
7 12/15/2017 19:13:12 73.66,-113.75 96.91 12/15/2017 19:12:00 73.59,-114.34 96.86 19.91 72
8 12/15/2017 20:02:41 -73.82, 53.53 82.93 12/15/2017 20:02:37 -73.84, 53.57 82.91 2.30 4
9 12/15/2017 20:52:09 73.86,-138.92 97.12 12/15/2017 20:53:16 73.87,-139.02 97.13 3.18 67
10 12/18/2017 14:47:29 73.78, -47.58 97.14 12/18/2017 14:46:19 73.78, -47.49 97.15 2.83 70
11 12/18/2017 15:36:56 -73.84, 119.93 82.80 12/18/2017 15:37:00 -73.83, 119.97 82.81 1.55 4
12 12/18/2017 16:26:25 73.93, -72.64 97.30 12/18/2017 16:27:37 73.96, -72.40 97.32 7.79 72
13 12/21/2017 10:21:43 73.76, 18.92 97.16 12/21/2017 10:20:42 73.77, 18.89 97.18 1.47 61
14 12/21/2017 11:11:10 -73.82,-173.58 82.78 12/21/2017 11:11:23 -73.83,-173.64 82.77 2.25 13




NCC Satellite Simultaneous Nadir Overpasses (SNOs) Prediction Service
